Regional Weather Roundup
Issued by NWS Sterling, VA

Home | Current Version | Previous Version | Graphics & Text | Print | Product List | Glossary On
Versions: 1 2 3 4 5 6 7 8 9 10 11 12 13 14 15 16 17 18 19 20 21 22 23 24 25 26 27 28 29 30 31 32 33 34 35 36 37 38 39 40 41 42 43 44 45 46 47 48 49 50
692
ASUS41 KLWX 291210
RWRLWX

REGIONAL WEATHER ROUNDUP
NATIONAL WEATHER SERVICE BALTIMORE MD/WASHINGTON DC
800 AM EDT FRI APR 29 2016

Note: "FAIR" indicates few or no clouds below 12,000 feet
with no significant weather and/or obstructions to visibility.
 TC=TEMPERATURE CELSIUS

 * =Non NWS site. Station does not report precipitation (e.g. rain,
    snow, etc.), thunder, or fog.

DCZ001-MDZ009-015-VAZ040>042-051-053>054-291300-
WASHINGTON METRO

CITY           SKY/WX    TMP DP  RH WIND       PRES   REMARKS
WASHINGTON NAT CLOUDY    48  46  93 NE8       30.05R FOG
DULLES         FOG       47  45  93 N3        30.05R VSB 1
ANDREWS AFB    CLOUDY    47  46  97 NE6       30.04R
FT BELVOIR     CLOUDY    49  47  92 VRB2      30.04S
QUANTICO       CLOUDY    50  47  89 NE6       30.05S
COLLEGE PARK*  CLOUDY    45  45 100 N5        30.05R
LEESBURG*      CLOUDY    46  46 100 CALM      30.05R FOG
MANASSAS*      CLOUDY    48  48 100 CALM      30.05R FOG
GAITHERSBURG*  CLOUDY    45  43  93 CALM      30.08S

$$

MDZ006>007-011-014-291300-
BALTIMORE METRO

CITY           SKY/WX    TMP DP  RH WIND       PRES   REMARKS
BWI AIRPORT    DRIZZLE   47  45  93 N6        30.05R FOG
MD SCIENCE CTR   N/A     48  44  86 MISG      30.07R
MARTIN STATE   CLOUDY    48  48 100 CALM      30.06F
ANNAPOLIS      CLOUDY    48  46  93 MISG      30.05R
FORT MEADE*    CLOUDY    45  45 100 CALM      30.08R

$$

MDZ012-015-019>023-291300-
MARYLAND EASTERN SHORE

CITY           SKY/WX    TMP DP  RH WIND       PRES   REMARKS
OCEAN CITY     CLOUDY    50  49  96 NE9       30.03R FOG
SALISBURY      CLOUDY    50  49  96 NE13      30.02R FOG
CAMBRIDGE*     CLOUDY    48  46  93 NE5       30.03R
EASTON*        CLOUDY   N/A N/A N/A NE8       30.08R HAZE

$$

MDZ017>025-291300-
SOUTHERN MARYLAND

CITY           SKY/WX    TMP DP  RH WIND       PRES   REMARKS
PATUXENT RIVER CLOUDY    51  47  86 NE10      30.03R
ST INIGOES     CLOUDY    51  49  92 NE8       30.01S FOG
LEONARDTOWN*   CLOUDY    50  46  87 NE3       30.05R

$$

MDZ003>005-291300-
NORTH CENTRAL MARYLAND

CITY           SKY/WX    TMP DP  RH WIND       PRES   REMARKS
FREDERICK*     CLOUDY    46  46 100 NE5       30.09R FOG
HAGERSTOWN APT CLOUDY    46  44  93 CALM      30.05R FOG
WESTMINSTER*   CLOUDY    45  43  93 E6        30.04S FOG

$$

MDZ501>502-291300-
WESTERN MARYLAND

CITY           SKY/WX    TMP DP  RH WIND       PRES   REMARKS
OAKLAND*       FOG       50  50 100 CALM      29.99R VSB<1/4
CUMBERLAND*    CLOUDY    46  46 100 MISG        N/A

$$

VAZ025>031-291300-
SHENANDOAH VALLEY

CITY           SKY/WX    TMP DP  RH WIND       PRES   REMARKS
WINCHESTER*    CLOUDY    46  45  93 CALM      30.03S FOG
FRONT ROYAL*   CLOUDY    45  45 100 CALM      30.03R
LURAY*         FOG       46  46 100 NE6       30.03R VSB 1
NEW MARKET*    CLOUDY    47  47  99 NE5       30.02R
STAUNTON*      FOG       53  53 100 N3        30.03R VSB 3/4
WAYNESBORO*    CLOUDY    53  51  95 MISG      30.00R

$$

WVZ021-048>050-054>055-291300-
EASTERN WEST VIRGINIA PANHANDLE

CITY           SKY/WX    TMP DP  RH WIND       PRES   REMARKS
MARTINSBURG    CLOUDY    46  43  89 CALM      30.05R FOG
PETERSBURG*    CLOUDY    49  48  97 CALM      30.02S FOG

$$

VAZ036>039-050-291300-
CENTRAL FOOTHILLS

CITY           SKY/WX    TMP DP  RH WIND       PRES   REMARKS
CHARLOTTESVILL CLOUDY    50  48  93 NE5       30.02R FOG
CULPEPER*      CLOUDY    48  48 100 NE3       30.05R FOG
ORANGE*        CLOUDY    48  48 100 CALM      30.05R FOG
GORDONSVILLE*  CLOUDY    49  49 100 NE3       30.03R
WARRENTON*     CLOUDY    48  44  85 N5        30.04R FOG

$$

VAZ055>057-291300-
NORTH AND CENTRAL PIEDMONT

CITY           SKY/WX    TMP DP  RH WIND       PRES   REMARKS
FREDERICKSBRG* CLOUDY    49  49 100 CALM      30.03S
STAFFORD*      CLOUDY    47  46  96 CALM      30.08R FOG

$$

NCZ024-NYZ072-PAZ021-071-VAZ022-071-291300-
OTHER REGIONAL OBSERVATIONS

CITY           SKY/WX    TMP DP  RH WIND       PRES   REMARKS
NEW YORK CITY  CLOUDY    49  31  49 NE9       30.13R
PHILADELPHIA   CLOUDY    48  41  76 NE7       30.07R
PITTSBURGH     FOG       47  44  90 NE5       29.98R VSB 1
ROANOKE        CLOUDY    58  57  97 CALM      30.03R VSB 1
RICHMOND       DRIZZLE   51  50  96 N8        30.02R FOG
RALEIGH        FOG       60  59  96 VRB5      30.00R VSB 1/2

$$

ANZ530>537-291300-
MARINE OBSERVATIONS

STATION/POSITION TIME  TEMP    WIND        PRES
                       AIR SEA DIR/SP/G
                 (UTC) (F)     (DEG/KT/KT) (MB)
THOMAS PT LIGHT  1200   48 57   50/ 10/ 11 1018.7R
BALT KEY BRIDGE  1100   46      30/  6/  7 1017.4R
COVE POINT       1100   49      60/  8/ 11 1017.1R
LEWISETTA        1100   51 60   40/  6/  9 1016.0R
SOLOMONS ISLAND  1100   50 59   30/  3/  6   N/A

$$





USA.gov is the U.S. government's official web portal to all federal, state and local government web resources and services.